Location: Lafig�re
(44.4503°N, 4.0357°E)
Time: 14:29:49
(UTC+00:00)

S-56A Canister/Altair - Pass Details

Date: 22 January 2021
Orbit: 631 x 2501 km, 38.9° (Epoch: 01 March)

Event Time Altitude Azimuth Distance (km) Brightness Sun altitude
Rises 08:13:23 0° 269° (W) 3,355 10.3 8.4°
Reaches altitude 10° 08:16:08 10° 254° (WSW) 2,622 10.0 8.8°
Maximum altitude 08:20:49 22° 205° (SSW) 2,241 10.2 9.4°
Drops below altitude 10° 08:26:54 10° 159° (SSE) 3,521 12.2 10.2°
Sets 08:31:22 0° 147° (SSE) 4,873 13.4 10.8°
